Weather in Orel

Russia / Republic of Tatarstan     55°33′57″N   49°04′04″E
temp.,
°C
wind,
m/s
gust,
m/s
humid.,
%
clouds,
%
prec.,
mm/h
press.,
hPa
HPBL,
m
10 april, sat
sat1000:000ne1196100 0.0 102810
03:000nne239481 0.0 102960
06:00−1ne2798100 0.0 1030160
09:00+2ne49100100 0.1 1029364
12:00+1ne49100100 2.5 1028348
15:00+2ne59100100 4.3 1027325
18:00+2ene4899100 3.4 1027247
21:00+1nne24100100 3.8 1026117
11 april, sun
sun1100:00+1nnw22100100 0.6 102568
03:00+2nnw2499100 9.3 1025113
06:00+2n36100100 0.6 1027136
09:00+3n3699100 0.7 1028215
12:00+3n3799100 2.2 1030247
15:00+3n3699100 3.3 1032209
18:00+3nne2699100 1.4 1033170
21:00+3nne2499100 3.4 1034116
12 april, mon
mon1200:00+3nne3699100 2.0 1034154
03:00+3nne3799100 3.8 1035175
06:00+3ne3898100 0.6 1035214
09:00+4ene3798100 1.6 1036206
12:00+6ene4694100 0.2 1036264
15:00+10ene4585100 0.3 1035427
18:00+8ene4794100 0.0 1034178
21:00+6ene259689 0.0 103592
13 april, tue
tue1300:00+6e229675 0.0 103420
03:00+5e119694 0.0 103410
06:00+6ese229579 0.0 103321
09:00+12sse357314 0.0 1033268
12:00+16s565057 0.0 1032768
15:00+17s563694 0.0 10311039
18:00+13s335374 0.0 103031
21:00+10s226010 0.0 103014
14 april, wed
wed1400:00+8s336359 0.0 102916
03:00+7ssw226876 0.0 102912
06:00+7ssw22653 0.0 102912
09:00+13ssw23515 0.0 1029318
12:00+17sw22415 0.0 1028884
15:00+18sw22355 0.0 10261295
18:00+15sse225170 0.0 102615
21:00+11sse226087 0.0 102610